Content
SEND FEEDBACK

Daily
Averages
Monthly
Summary
United States of America

COMANCHE, OKLAHOMA


Home > North America > United States > Oklahoma
Elevation: 1102 feet     Latitude: 34 30N     Longitude: 097 58W

WEATHER
 
SELECT A DAY
Number of Records: 333,733;   Date Range: 3/30/01 - 12/18/14
 
SHARE

PRINT THIS DATA

[ ← Previous Day ]
WEATHER ALMANAC - FEBRUARY 13, 2013
[ Next Day → ]
[ °C ]   °F
Weather ElementAverageHighLow
Temperature42 °F55.4 °F (3:35 pm)32 °F (7:15 am)
Dewpoint33.6 °F37.4 °F (10:15 am)28.4 °F (4:55 pm)
Humidity76.3 %100 % (12:35 am)36 % (4:55 pm)
Barometer30.05 in30.11 in (10:15 am)29.99 in (4:35 pm)
Wind Speed5 mph11.5 mph (4:15 pm)
Weather ElementAverage
Visibility10 mi
Wind DirectionSSW (203.9 °)

Weather ElementTotal
Precipitation---
Heating Degree Days21.3 (Base 65)
Averaged from 70 records on February 13, 2013
WEATHER CONDITIONS BREAKOUT
WIND DIRECTION BREAKOUT
WEATHER BY HOUR - FEBRUARY 13, 2013
[ °C ]   °F
Local TimeTemperatureDewpointHumidityBarometerVisibilityWind DirectionWind SpeedGust SpeedPrecipitationEventsConditions
12:35 AM35.6 °F35.6 °F100 %30.08 in10.0 miNNW (330°)8.1 mphOvercast
12:55 AM35.6 °F35.6 °F100 %30.09 in10.0 miNW (320°)9.2 mphOvercast
1:15 AM35.6 °F35.6 °F100 %30.08 in10.0 miNW (320°)6.9 mphOvercast
1:35 AM35.6 °F35.6 °F100 %30.08 in10.0 miNNW (340°)6.9 mphOvercast
1:55 AM35.6 °F35.6 °F100 %30.08 in10.0 miNW (320°)5.8 mphOvercast
2:15 AM35.6 °F35.6 °F100 %30.08 in10.0 miWNW (300°)6.9 mphOvercast
2:35 AM35.6 °F35.6 °F100 %30.07 in10.0 miNW (320°)6.9 mphOvercast
2:55 AM35.6 °F35.6 °F100 %30.08 in10.0 miNW (310°)9.2 mphOvercast
3:15 AM35.6 °F35.6 °F100 %30.08 in10.0 miNW (320°)8.1 mphOvercast
3:35 AM35.6 °F35.6 °F100 %30.08 in10.0 miNW (310°)9.2 mphOvercast
3:55 AM33.8 °F33.8 °F100 %30.08 in10.0 miNW (310°)9.2 mphOvercast
4:15 AM33.8 °F33.8 °F100 %30.08 in10.0 miNW (310°)4.6 mphOvercast
4:35 AM33.8 °F33.8 °F100 %30.08 in10.0 miNW (310°)4.6 mphOvercast
4:55 AM33.8 °F33.8 °F100 %30.08 in10.0 miNW (310°)4.6 mphOvercast
5:15 AM35.6 °F33.8 °F93 %30.07 in10.0 miWest (280°)4.6 mphOvercast
5:35 AM35.6 °F33.8 °F93 %30.07 in10.0 miWNW (290°)3.5 mphOvercast
5:55 AM35.6 °F33.8 °F93 %30.08 in10.0 miWNW (300°)5.8 mphMostly Cloudy
6:15 AM33.8 °F33.8 °F100 %30.08 in10.0 miCalmMostly Cloudy
6:35 AM33.8 °F33.8 °F100 %30.08 in10.0 miWest (270°)3.5 mphMostly Cloudy
6:55 AM33.8 °F33.8 °F100 %30.08 in10.0 miCalmScattered Clouds
7:15 AM32.0 °F32.0 °F100 %30.08 in10.0 miCalmClear
7:35 AM32.0 °F32.0 °F100 %30.07 in10.0 miCalmClear
7:55 AM32.0 °F32.0 °F100 %30.09 in10.0 miCalmClear
8:15 AM32.0 °F32.0 °F100 %30.09 in10.0 miSW (230°)3.5 mphClear
8:35 AM33.8 °F33.8 °F100 %30.09 in10.0 miSW (220°)3.5 mphClear
8:55 AM35.6 °F35.6 °F100 %30.09 in10.0 miSSW (210°)4.6 mphClear
9:15 AM35.6 °F35.6 °F100 %30.10 in10.0 miSSW (210°)4.6 mphScattered Clouds
9:35 AM37.4 °F35.6 °F93 %30.10 in10.0 miSW (230°)4.6 mphScattered Clouds
9:55 AM37.4 °F35.6 °F93 %30.10 in10.0 miSW (220°)4.6 mphScattered Clouds
10:15 AM41.0 °F37.4 °F87 %30.11 in10.0 miSW (220°)6.9 mphScattered Clouds
10:35 AM41.0 °F37.4 °F87 %30.11 in10.0 miWSW (250°)8.1 mphClear
10:55 AM41.0 °F37.4 °F87 %30.11 in10.0 miWSW (240°)6.9 mphClear
11:15 AM42.8 °F37.4 °F81 %30.11 in10.0 miWSW (250°)4.6 mphClear
11:35 AM44.6 °F37.4 °F76 %30.10 in10.0 miSW (220°)6.9 mphClear
11:55 AM44.6 °F37.4 °F76 %30.09 in10.0 miSW (220°)8.1 mphClear
12:15 PM46.4 °F37.4 °F71 %30.09 in10.0 miSW (230°)8.1 mphClear
12:55 PM50.0 °F37.4 °F62 %30.07 in10.0 miWSW (240°)6.9 mphClear
1:15 PM50.0 °F37.4 °F62 %30.06 in10.0 miWest (270°)9.2 mphClear
1:35 PM51.8 °F37.4 °F58 %30.04 in10.0 miWSW (240°)8.1 mphClear
1:55 PM51.8 °F37.4 °F58 %30.03 in10.0 miWSW (250°)9.2 mphClear
2:15 PM51.8 °F35.6 °F54 %30.03 in10.0 miWest (280°)6.9 mphClear
2:35 PM53.6 °F33.8 °F47 %30.02 in10.0 miWest (280°)5.8 mphClear
2:55 PM53.6 °F35.6 °F51 %30.02 in10.0 miWest (260°)6.9 mphClear
3:15 PM53.6 °F32.0 °F44 %30.01 in10.0 miWSW (250°)8.1 mphClear
3:35 PM55.4 °F32.0 °F41 %30.01 in10.0 miWNW (300°)9.2 mphClear
3:55 PM55.4 °F32.0 °F41 %30.00 in10.0 miWest (280°)6.9 mphClear
4:15 PM55.4 °F30.2 °F38 %30.00 in10.0 miWest (270°)11.5 mphClear
4:35 PM55.4 °F30.2 °F38 %29.99 in10.0 miWest (270°)10.4 mphClear
4:55 PM55.4 °F28.4 °F36 %29.99 in10.0 miWest (270°)11.5 mphClear
5:15 PM53.6 °F28.4 °F38 %29.99 in10.0 miWest (280°)8.1 mphClear
5:35 PM53.6 °F30.2 °F41 %29.99 in10.0 miWest (270°)6.9 mphClear
5:55 PM53.6 °F28.4 °F38 %30.00 in10.0 miWest (270°)4.6 mphClear
6:15 PM51.8 °F30.2 °F44 %29.99 in10.0 miWest (260°)4.6 mphClear
6:35 PM50.0 °F30.2 °F47 %30.00 in10.0 miWSW (240°)3.5 mphClear
6:55 PM48.2 °F30.2 °F50 %30.00 in10.0 miWSW (240°)4.6 mphClear
7:15 PM46.4 °F30.2 °F53 %30.01 in10.0 miWSW (250°)4.6 mphClear
7:35 PM46.4 °F32.0 °F57 %30.01 in10.0 miWSW (240°)4.6 mphClear
7:55 PM46.4 °F30.2 °F53 %30.01 in10.0 miWSW (240°)3.5 mphClear
8:15 PM46.4 °F30.2 °F53 %30.01 in10.0 miCalmClear
8:35 PM44.6 °F32.0 °F61 %30.01 in10.0 miCalmClear
8:55 PM44.6 °F30.2 °F57 %30.01 in10.0 miCalmClear
9:15 PM41.0 °F32.0 °F70 %30.01 in10.0 miCalmClear
9:35 PM42.8 °F32.0 °F66 %30.01 in10.0 miCalmClear
9:55 PM41.0 °F32.0 °F70 %30.01 in10.0 miCalmClear
10:15 PM39.2 °F33.8 °F81 %30.01 in10.0 miCalmClear
10:35 PM37.4 °F32.0 °F81 %30.02 in10.0 miCalmClear
10:55 PM39.2 °F32.0 °F75 %30.02 in10.0 miCalmClear
11:15 PM39.2 °F32.0 °F75 %30.02 in10.0 miCalmClear
11:35 PM37.4 °F32.0 °F81 %30.02 in10.0 miCalmClear
11:55 PM35.6 °F33.8 °F93 %30.03 in10.0 miCalmClear
Hourly data recorded from KDUC, located miles away from Comanche, Oklahoma







STORIES FROM OUR PARTNERS